Weather in Lubliniec

Poland     50°40′19″N   18°41′28″E
temp.,
°C
wind,
m/s
gust,
m/s
humid.,
%
clouds,
%
prec.,
mm/h
press.,
hPa
HPBL,
m
17 april, sat
sat1723:00+3wnw4898100 2.2 1019686
02:00+3w4798100 3.9 1019756
05:00+3wnw3698100 0.7 1019666
08:00+3wnw3598100 1.1 1019436
11:00+3w3496100 0.1 1020377
14:00+4wnw2395100 0.2 1020462
17:00+5wnw2392100 0.0 1020504
20:00+4nw2396100 0.0 1020203
18 april, sun
sun1823:00+4wnw129794 0.0 1020116
02:00+4wnw2397100 0.0 1020131
05:00+4nw1197100 0.0 101950
08:00+4nne1194100 0.0 1019122
11:00+6ene2285100 0.0 1019471
14:00+9ene2370100 0.3 10191082
17:00+10e3462100 0.2 10181291
20:00+8ene2476100 0.2 1019100
19 april, mon
mon1923:00+7nne1274100 0.0 101918
02:00+7nne3581100 0.0 1019143
05:00+6nne3691100 0.1 1018168
08:00+7nne2397100 2.1 1017117
11:00+8ene4790100 1.3 1017688
14:00+9e5969100 1.3 10171013
17:00+9ene5971100 0.1 10161023
20:00+8ne4979100 0.1 1016417
20 april, tue
tue2023:00+6ne3789100 0.0 1016217
02:00+6ne3689100 0.1 1015226
05:00+6ne369455 0.2 1015185
08:00+7ene478034 0.2 1015354
11:00+11ene455586 0.2 10151563
14:00+11ne445095 0.5 10141538
17:00+11ne444969 0.1 10141396
20:00+7n34695 0.1 101569
21 april, wed
wed2123:00+6n22765 0.0 101531
02:00+5nw22835 0.0 101517
05:00+3w22875 0.0 101528
08:00+7w347352 0.0 1015241
11:00+11w455394 0.3 10151648
14:00+12wnw4546100 0.4 10141831
17:00+14wsw454480 0.0 10131867
20:00+10wsw3870100 0.1 1014312